Weather History for Bar Harbor, ME

Change the Weather History Date:

Sunday, December 16, 2012

  Actual Average Record
Temperature  
Mean Temperature 14 °F -  
Max Temperature 21 °F 35 °F 53 °F (2008)
Min Temperature 8 °F 18 °F -2 °F (1951)
Degree Days  
Heating Degree Days 50    
Moisture  
Dew Point 6 °F    
Average Humidity 64    
Maximum Humidity 85    
Minimum Humidity 46    
Precipitation  
Precipitation 0.00 in - - ()
Sea Level Pressure  
Sea Level Pressure 30.33 in    
Wind  
Wind Speed 5 mph (North)    
Max Wind Speed 13 mph    
Max Gust Speed -    
Visibility 10 miles    
Events      
Averages and records for this station are not official NWS values.
T = Trace of Precipitation, MM = Missing Value Source: NWS Daily Summary

Daily Weather History Graph

Daily Weather History Graph

Search for Another Location

Airport:

Trip Planner

Search our weather history database for the weather conditions in past years. The results will help you decide how hot, cold, wet, or windy it might be!

Date:

Astronomy

Dec. 16, 2012 Rise Set
Actual Time 7:03 AM EST 3:54 PM EST
Civil Twilight 6:30 AM EST 4:28 PM EST
Nautical Twilight 5:53 AM EST 5:05 PM EST
Astronomical Twilight 5:18 AM EST 5:40 PM EST
Moon 9:28 AM EST (12/16) 8:12 PM EST (12/16)
Length of Visible Light 9h 57m
Length of Day
8h 50m
Waxing Crescent, 16% of the Moon is Illuminated
Dec 16
Waxing Crescent
Dec 20
First Quarter
Dec 28
Full
Jan 4
Last Quarter
Jan 11
New

Hourly Weather History & Observations

Time (EST) Temp. Windchill Dew Point Humidity Pressure Visibility Wind Dir Wind Speed Gust Speed Precip Events Conditions
12:15 AM 12.2 °F 6.1 °F 5.0 °F 73% 30.39 in 10.0 mi NW 3.5 mph - N/A   Clear
12:35 AM 12.2 °F - 5.0 °F 73% 30.40 in 10.0 mi Calm Calm - N/A   Clear
12:55 AM 12.2 °F - 5.0 °F 73% 30.39 in 10.0 mi Calm Calm - N/A   Clear
1:15 AM 12.2 °F 6.1 °F 5.0 °F 73% 30.39 in 10.0 mi North 3.5 mph - N/A   Clear
1:55 AM 10.4 °F 4.0 °F 6.8 °F 85% 30.39 in 10.0 mi NNE 3.5 mph - N/A   Clear
2:15 AM 10.4 °F 0.8 °F 6.8 °F 85% 30.38 in 10.0 mi NNE 5.8 mph - N/A   Clear
2:35 AM 10.4 °F 4.0 °F 5.0 °F 79% 30.38 in 10.0 mi NNE 3.5 mph - N/A   Clear
2:55 AM 10.4 °F 4.0 °F 6.8 °F 85% 30.39 in 10.0 mi NNE 3.5 mph - N/A   Clear
3:55 AM 10.4 °F - 5.0 °F 79% 30.39 in 10.0 mi Calm Calm - N/A   Clear
4:35 AM 10.4 °F -1.5 °F 5.0 °F 79% 30.38 in 10.0 mi North 8.1 mph - N/A   Clear
4:55 AM 10.4 °F 2.2 °F 3.2 °F 73% 30.39 in 10.0 mi North 4.6 mph - N/A   Clear
5:15 AM 10.4 °F 0.8 °F 3.2 °F 73% 30.38 in 10.0 mi North 5.8 mph - N/A   Clear
5:35 AM 10.4 °F -1.5 °F 5.0 °F 79% 30.38 in 10.0 mi North 8.1 mph - N/A   Clear
5:55 AM 10.4 °F 4.0 °F 3.2 °F 73% 30.39 in 10.0 mi North 3.5 mph - N/A   Clear
6:15 AM 10.4 °F 0.8 °F 3.2 °F 73% 30.39 in 10.0 mi North 5.8 mph - N/A   Clear
6:35 AM 8.6 °F 0.1 °F 3.2 °F 79% 30.40 in 10.0 mi North 4.6 mph - N/A   Clear
6:55 AM 8.6 °F -1.3 °F 3.2 °F 79% 30.40 in 10.0 mi North 5.8 mph - N/A   Clear
7:15 AM 8.6 °F -1.3 °F 3.2 °F 79% 30.40 in 10.0 mi North 5.8 mph - N/A   Clear
7:35 AM 10.4 °F 4.0 °F 3.2 °F 73% 30.40 in 10.0 mi North 3.5 mph - N/A   Clear
8:35 AM 10.4 °F -3.3 °F 3.2 °F 73% 30.39 in 10.0 mi North 10.4 mph - N/A   Clear
8:55 AM 12.2 °F -2.5 °F 5.0 °F 73% 30.40 in 10.0 mi NNE 12.7 mph - N/A   Clear
9:15 AM 12.2 °F -1.0 °F 6.8 °F 79% 30.39 in 10.0 mi NNE 10.4 mph - N/A   Clear
9:35 AM 12.2 °F -1.0 °F 6.8 °F 79% 30.38 in 10.0 mi NNE 10.4 mph - N/A   Clear
9:55 AM 14.0 °F 5.1 °F 6.8 °F 73% 30.39 in 10.0 mi NNW 5.8 mph - N/A   Clear
10:15 AM 15.8 °F 8.6 °F 6.8 °F 68% 30.38 in 10.0 mi North 4.6 mph - N/A   Clear
10:35 AM 15.8 °F 6.1 °F 5.0 °F 62% 30.37 in 10.0 mi North 6.9 mph - N/A   Clear
10:55 AM 17.6 °F 8.2 °F 3.2 °F 53% 30.37 in 10.0 mi North 6.9 mph - N/A   Clear
11:15 AM 17.6 °F 7.3 °F 5.0 °F 58% 30.36 in 10.0 mi North 8.1 mph - N/A   Clear
11:35 AM 17.6 °F 8.2 °F 5.0 °F 58% 30.35 in 10.0 mi NNE 6.9 mph - N/A   Clear
11:55 AM 17.6 °F 10.7 °F 5.0 °F 58% 30.34 in 10.0 mi North 4.6 mph - N/A   Clear
12:15 PM 19.4 °F 10.4 °F 5.0 °F 54% 30.33 in 10.0 mi North 6.9 mph - N/A   Clear
12:35 PM 19.4 °F 11.5 °F 6.8 °F 58% 30.32 in 10.0 mi NNE 5.8 mph - N/A   Clear
12:55 PM 21.2 °F 13.6 °F 5.0 °F 50% 30.31 in 10.0 mi NNW 5.8 mph - N/A   Clear
1:15 PM 21.2 °F 16.4 °F 3.2 °F 46% 30.32 in 10.0 mi West 3.5 mph - N/A   Clear
1:35 PM 21.2 °F 14.9 °F 5.0 °F 50% 30.31 in 10.0 mi NNW 4.6 mph - N/A   Clear
1:55 PM 21.2 °F 14.9 °F 5.0 °F 50% 30.30 in 10.0 mi NW 4.6 mph - N/A   Clear
2:15 PM 21.2 °F 16.4 °F 5.0 °F 50% 30.30 in 10.0 mi NNW 3.5 mph - N/A   Clear
2:35 PM 21.2 °F 13.6 °F 5.0 °F 50% 30.30 in 10.0 mi NW 5.8 mph - N/A   Clear
2:55 PM 21.2 °F 16.4 °F 5.0 °F 50% 30.30 in 10.0 mi NNW 3.5 mph - N/A   Clear
3:15 PM 21.2 °F 14.9 °F 6.8 °F 54% 30.29 in 10.0 mi North 4.6 mph - N/A   Clear
3:35 PM 21.2 °F 16.4 °F 5.0 °F 50% 30.29 in 10.0 mi NNW 3.5 mph - N/A   Clear
3:55 PM 21.2 °F 14.9 °F 6.8 °F 54% 30.28 in 10.0 mi North 4.6 mph - N/A   Clear
4:15 PM 21.2 °F 16.4 °F 8.6 °F 58% 30.27 in 10.0 mi North 3.5 mph - N/A   Scattered Clouds
4:35 PM 21.2 °F 14.9 °F 8.6 °F 58% 30.27 in 10.0 mi North 4.6 mph - N/A   Mostly Cloudy
4:55 PM 21.2 °F 14.9 °F 8.6 °F 58% 30.27 in 10.0 mi North 4.6 mph - N/A   Scattered Clouds
5:15 PM 21.2 °F 11.7 °F 6.8 °F 54% 30.26 in 10.0 mi NE 8.1 mph - N/A   Clear
5:35 PM 21.2 °F 10.9 °F 6.8 °F 54% 30.26 in 10.0 mi NNE 9.2 mph - N/A   Scattered Clouds
5:55 PM 21.2 °F 13.6 °F 8.6 °F 58% 30.25 in 10.0 mi NNE 5.8 mph - N/A   Mostly Cloudy
6:15 PM 21.2 °F 11.7 °F 8.6 °F 58% 30.25 in 10.0 mi NNE 8.1 mph - N/A   Scattered Clouds
6:55 PM 21.2 °F 12.6 °F 6.8 °F 54% 30.25 in 10.0 mi NNE 6.9 mph - N/A   Mostly Cloudy
7:15 PM 21.2 °F 16.4 °F 8.6 °F 58% 30.26 in 10.0 mi NNE 3.5 mph - N/A   Scattered Clouds
7:35 PM 21.2 °F - 8.6 °F 58% 30.26 in 10.0 mi Calm Calm - N/A   Scattered Clouds
7:55 PM 21.2 °F - 8.6 °F 58% 30.25 in 10.0 mi Calm Calm - N/A   Mostly Cloudy
8:15 PM 21.2 °F 16.4 °F 8.6 °F 58% 30.26 in 10.0 mi North 3.5 mph - N/A   Overcast
8:35 PM 21.2 °F 14.9 °F 10.4 °F 63% 30.25 in 10.0 mi North 4.6 mph - N/A   Scattered Clouds
8:55 PM 21.2 °F - 8.6 °F 58% 30.26 in 10.0 mi Calm Calm - N/A   Mostly Cloudy
9:15 PM 21.2 °F 16.4 °F 8.6 °F 58% 30.26 in 10.0 mi North 3.5 mph - N/A   Overcast
9:35 PM 21.2 °F 16.4 °F 8.6 °F 58% 30.27 in 10.0 mi North 3.5 mph - N/A   Overcast
9:55 PM 21.2 °F 13.6 °F 10.4 °F 63% 30.26 in 10.0 mi NNE 5.8 mph - N/A   Overcast
10:35 PM 21.2 °F 16.4 °F 10.4 °F 63% 30.26 in 10.0 mi North 3.5 mph - N/A   Mostly Cloudy
10:56 PM 21.2 °F 12.6 °F 10.4 °F 63% 30.26 in 10.0 mi NNE 6.9 mph - N/A   Overcast
11:15 PM 21.2 °F 12.6 °F 10.4 °F 63% 30.26 in 10.0 mi NNE 6.9 mph - N/A   Overcast
11:35 PM 21.2 °F 14.9 °F 10.4 °F 63% 30.26 in 10.0 mi North 4.6 mph - N/A   Overcast
11:55 PM 21.2 °F 12.6 °F 10.4 °F 63% 30.25 in 10.0 mi North 6.9 mph - N/A   Overcast